• In Belarus
  • List of Countries
  • For 7 days
  • Water Temperature
  • Satellite Maps
  • Weather Map
  • Weather Widgets
  • user-avatar
    Login

    Hourly Weather Etchmiadzin

    Today, 15 July, Monday

    Time Temperature Precipitation Wind Pressure Humidity
    00:00 +23°C° 0 mm 2 mps 682 mmHg 54%
    01:00 +21°C° 0 mm 2 mps 682 mmHg 56%
    02:00 +21°C° 0 mm 2 mps 682 mmHg 58%
    03:00 +20°C° 0 mm 2 mps 681 mmHg 59%
    04:00 +21°C° 0 mm 2 mps 682 mmHg 58%
    05:00 +21°C° 0 mm 2 mps 682 mmHg 57%
    06:00 +23°C° 0 mm 2 mps 682 mmHg 56%
    07:00 +25°C° 0 mm 2 mps 682 mmHg 51%
    08:00 +27°C° 0 mm 2 mps 682 mmHg 45%
    09:00 +29°C° 0 mm 1 mps 683 mmHg 39%
    10:00 +31°C° 0 mm 2 mps 683 mmHg 34%
    11:00 +32°C° 0 mm 2 mps 683 mmHg 29%
    12:00 +35°C° 0 mm 3 mps 683 mmHg 25%
    13:00 +36°C° 0 mm 3 mps 682 mmHg 22%
    14:00 +37°C° 0 mm 2 mps 682 mmHg 20%
    15:00 +37°C° 0 mm 2 mps 681 mmHg 19%
    16:00 +37°C° 0 mm 3 mps 681 mmHg 18%
    17:00 +37°C° 0 mm 3 mps 681 mmHg 18%
    18:00 +37°C° 0 mm 3 mps 682 mmHg 17%
    19:00 +35°C° 0 mm 3 mps 681 mmHg 22%
    20:00 +31°C° 0 mm 3 mps 681 mmHg 26%
    21:00 +28°C° 0 mm 4 mps 681 mmHg 30%
    22:00 +27°C° 0 mm 3 mps 681 mmHg 32%
    23:00 +26°C° 0 mm 3 mps 681 mmHg 34%

    Tomorrow, 16 July, Tuesday

    Time Temperature Precipitation Wind Pressure Humidity
    00:00 +24°C° 0 mm 2 mps 681 mmHg 35%
    01:00 +24°C° 0 mm 2 mps 681 mmHg 37%
    02:00 +23°C° 0 mm 2 mps 681 mmHg 39%
    03:00 +21°C° 0 mm 2 mps 682 mmHg 40%
    04:00 +23°C° 0 mm 2 mps 682 mmHg 42%
    05:00 +23°C° 0 mm 2 mps 682 mmHg 44%
    06:00 +24°C° 0 mm 2 mps 682 mmHg 46%
    07:00 +26°C° 0 mm 2 mps 682 mmHg 40%
    08:00 +28°C° 0 mm 2 mps 682 mmHg 34%
    09:00 +30°C° 0 mm 2 mps 682 mmHg 28%
    10:00 +31°C° 0 mm 2 mps 682 mmHg 25%
    11:00 +34°C° 0 mm 2 mps 682 mmHg 22%
    12:00 +35°C° 0 mm 2 mps 682 mmHg 19%
    13:00 +36°C° 0 mm 2 mps 682 mmHg 18%
    14:00 +36°C° 0 mm 2 mps 682 mmHg 17%
    15:00 +37°C° 0 mm 2 mps 682 mmHg 17%
    16:00 +37°C° 0 mm 2 mps 682 mmHg 17%
    17:00 +36°C° 0 mm 2 mps 682 mmHg 18%
    18:00 +36°C° 0 mm 2 mps 682 mmHg 19%
    19:00 +33°C° 0 mm 3 mps 682 mmHg 28%
    20:00 +29°C° 0 mm 3 mps 682 mmHg 36%
    21:00 +27°C° 0 mm 4 mps 682 mmHg 45%
    22:00 +26°C° 0 mm 4 mps 682 mmHg 47%
    23:00 +25°C° 0 mm 3 mps 682 mmHg 49%

    Day after tomorrow, 17 July, Wednesday

    Time Temperature Precipitation Wind Pressure Humidity
    00:00 +24°C° 0 mm 3 mps 682 mmHg 51%
    01:00 +24°C° 0 mm 3 mps 681 mmHg 52%
    02:00 +23°C° 0 mm 2 mps 681 mmHg 53%
    03:00 +21°C° 0 mm 2 mps 681 mmHg 54%
    04:00 +23°C° 0 mm 2 mps 681 mmHg 53%
    05:00 +23°C° 0 mm 2 mps 681 mmHg 52%
    06:00 +24°C° 0 mm 1 mps 681 mmHg 51%
    07:00 +26°C° 0 mm 1 mps 682 mmHg 46%
    08:00 +28°C° 0 mm 1 mps 682 mmHg 41%
    09:00 +30°C° 0 mm 1 mps 682 mmHg 36%
    10:00 +31°C° 0 mm 2 mps 682 mmHg 33%
    11:00 +34°C° 0 mm 2 mps 682 mmHg 29%
    12:00 +36°C° 0 mm 3 mps 682 mmHg 26%
    13:00 +36°C° 0 mm 3 mps 682 mmHg 24%
    14:00 +37°C° 0 mm 3 mps 682 mmHg 22%
    15:00 +38°C° 0 mm 3 mps 682 mmHg 19%
    16:00 +38°C° 0 mm 2 mps 682 mmHg 21%
    17:00 +37°C° 0 mm 2 mps 682 mmHg 22%
    18:00 +37°C° 0 mm 2 mps 682 mmHg 24%
    19:00 +35°C° 0 mm 2 mps 681 mmHg 28%
    20:00 +31°C° 0 mm 3 mps 682 mmHg 34%
    21:00 +28°C° 0 mm 4 mps 682 mmHg 40%
    22:00 +27°C° 0 mm 3 mps 682 mmHg 42%
    23:00 +26°C° 0 mm 3 mps 681 mmHg 44%

    18 July, Thursday

    Time Temperature Precipitation Wind Pressure Humidity
    00:00 +25°C° 0 mm 2 mps 681 mmHg 47%
    01:00 +25°C° 0 mm 2 mps 681 mmHg 49%
    02:00 +24°C° 0 mm 2 mps 681 mmHg 52%
    03:00 +23°C° 0 mm 2 mps 681 mmHg 54%
    04:00 +24°C° 0 mm 2 mps 681 mmHg 53%
    05:00 +25°C° 0 mm 1 mps 682 mmHg 51%
    06:00 +25°C° 0 mm 1 mps 682 mmHg 50%
    07:00 +27°C° 0 mm 1 mps 682 mmHg 44%
    08:00 +30°C° 0 mm 1 mps 682 mmHg 38%
    09:00 +32°C° 0 mm 1 mps 683 mmHg 32%
    10:00 +35°C° 0 mm 2 mps 683 mmHg 28%
    11:00 +36°C° 0 mm 2 mps 683 mmHg 24%
    12:00 +38°C° 0 mm 3 mps 683 mmHg 19%
    13:00 +39°C° 0 mm 3 mps 683 mmHg 18%
    14:00 +40°C° 0 mm 3 mps 682 mmHg 16%
    15:00 +40°C° 0 mm 3 mps 682 mmHg 14%
    16:00 +40°C° 0 mm 3 mps 682 mmHg 14%
    17:00 +40°C° 0 mm 3 mps 682 mmHg 15%
    18:00 +39°C° 0 mm 3 mps 682 mmHg 16%
    19:00 +36°C° 0 mm 3 mps 683 mmHg 23%
    20:00 +33°C° 0 mm 3 mps 683 mmHg 30%
    21:00 +29°C° 0 mm 3 mps 683 mmHg 37%
    22:00 +28°C° 0 mm 3 mps 683 mmHg 39%
    23:00 +27°C° 0 mm 3 mps 683 mmHg 41%

    19 July, Friday

    Time Temperature Precipitation Wind Pressure Humidity
    00:00 +26°C° 0 mm 3 mps 683 mmHg 43%
    01:00 +25°C° 0 mm 3 mps 683 mmHg 46%
    02:00 +24°C° 0 mm 3 mps 683 mmHg 48%
    03:00 +24°C° 0 mm 3 mps 683 mmHg 51%
    04:00 +24°C° 0 mm 2 mps 683 mmHg 51%
    05:00 +25°C° 0 mm 2 mps 684 mmHg 51%
    06:00 +25°C° 0 mm 2 mps 684 mmHg 50%
    07:00 +27°C° 0 mm 2 mps 684 mmHg 45%
    08:00 +30°C° 0 mm 2 mps 684 mmHg 40%
    09:00 +32°C° 0 mm 2 mps 685 mmHg 34%
    10:00 +35°C° 0 mm 2 mps 685 mmHg 30%
    11:00 +36°C° 0 mm 2 mps 685 mmHg 25%
    12:00 +38°C° 0 mm 2 mps 685 mmHg 21%
    13:00 +39°C° 0 mm 2 mps 685 mmHg 19%
    14:00 +39°C° 0 mm 2 mps 685 mmHg 18%
    15:00 +40°C° 0 mm 2 mps 684 mmHg 16%
    16:00 +39°C° 0 mm 3 mps 684 mmHg 20%
    17:00 +39°C° 0 mm 3 mps 684 mmHg 23%
    18:00 +38°C° 0 mm 4 mps 684 mmHg 27%
    19:00 +35°C° 0 mm 4 mps 684 mmHg 34%
    20:00 +32°C° 0 mm 4 mps 685 mmHg 41%
    21:00 +28°C° 0 mm 4 mps 685 mmHg 48%
    22:00 +28°C° 0 mm 4 mps 685 mmHg 51%
    23:00 +27°C° 0 mm 3 mps 685 mmHg 54%

    20 July, Saturday

    Time Temperature Precipitation Wind Pressure Humidity
    00:00 +26°C° 0 mm 3 mps 686 mmHg 56%
    01:00 +26°C° 0 mm 3 mps 686 mmHg 58%
    02:00 +25°C° 0 mm 2 mps 686 mmHg 59%
    03:00 +24°C° 0 mm 2 mps 686 mmHg 61%
    04:00 +25°C° 0 mm 2 mps 686 mmHg 59%
    05:00 +25°C° 0 mm 2 mps 686 mmHg 57%
    06:00 +26°C° 0 mm 2 mps 686 mmHg 56%
    07:00 +28°C° 0 mm 2 mps 687 mmHg 50%
    08:00 +30°C° 0 mm 2 mps 687 mmHg 44%
    09:00 +32°C° 0 mm 1 mps 687 mmHg 39%
    10:00 +35°C° 0 mm 2 mps 687 mmHg 34%
    11:00 +37°C° 0 mm 2 mps 687 mmHg 30%
    12:00 +38°C° 0 mm 3 mps 688 mmHg 26%
    13:00 +39°C° 0 mm 3 mps 687 mmHg 24%
    14:00 +40°C° 0 mm 3 mps 687 mmHg 21%
    15:00 +42°C° 0 mm 4 mps 687 mmHg 19%
    16:00 +41°C° 0 mm 4 mps 687 mmHg 23%
    17:00 +40°C° 0 mm 5 mps 687 mmHg 26%
    18:00 +40°C° 0 mm 5 mps 687 mmHg 30%
    19:00 +36°C° 0 mm 5 mps 687 mmHg 37%
    20:00 +33°C° 0 mm 5 mps 687 mmHg 44%
    21:00 +30°C° 0 mm 4 mps 687 mmHg 52%
    22:00 +29°C° 0 mm 4 mps 687 mmHg 53%
    23:00 +28°C° 0 mm 3 mps 687 mmHg 55%
    Show more